Tracking 32139 objects as of 14-Nov-2025
HD Live streaming from Space Station
objects crossing your sky now

SL-12 R/B

Track SL-12 R/B now!


NORAD ID: 20413
Int'l Code: 1983-020D
Perigee: 33,576.0 km
Apogee: 168,104.2 km
Inclination: 78.0 °
Period: 5,822.6 minutes
Semi major axis: 107211 km
RCS: 1.9953 m2 (large)
Launch date: March 23, 1983
Source: Commonwealth of Independent States (former USSR) (CIS)
Launch site: TYURATAM MISSILE AND SPACE COMPLEX (TTMTR)

Note: This is a ROCKET BODY
Your satellite tracking list
Your tracking list is empty




NASA's NSSDC Master Catalog

Two Line Element Set (TLE):
1 20413U 83020D   25318.91911699 -.00001092  00000-0  00000-0 0  9990
2 20413  78.0064  60.8525 6273985  46.3706 358.7379  0.24731083 10819
Source of the keplerian elements: AFSPC